TimeMDT,TemperatureF,Dew PointF,Humidity,Sea Level PressureIn,VisibilityMPH,Wind Direction,Wind SpeedMPH,Gust SpeedMPH,PrecipitationIn,Events,Conditions,WindDirDegrees,DateUTC
12:15 AM,59.0,26.6,29,30.04,10.0,WSW,11.5,21.9,N/A,,Clear,250,2012-10-31 06:15:00
12:35 AM,57.2,26.6,31,30.05,10.0,West,8.1,19.6,N/A,,Clear,260,2012-10-31 06:35:00
12:55 AM,57.2,26.6,31,30.06,10.0,NW,6.9,-,N/A,,Clear,320,2012-10-31 06:55:00
1:16 AM,55.4,26.6,33,30.07,10.0,ESE,6.9,-,N/A,,Clear,110,2012-10-31 07:16:00
1:35 AM,53.6,26.6,35,30.07,10.0,East,9.2,-,N/A,,Clear,90,2012-10-31 07:35:00
1:55 AM,53.6,26.6,35,30.07,10.0,SW,4.6,-,N/A,,Clear,220,2012-10-31 07:55:00
2:15 AM,53.6,26.6,35,30.08,10.0,North,4.6,-,N/A,,Clear,360,2012-10-31 08:15:00
2:35 AM,53.6,26.6,35,30.07,10.0,Calm,Calm,-,N/A,,Clear,0,2012-10-31 08:35:00
2:55 AM,53.6,26.6,35,30.07,10.0,ESE,3.5,-,N/A,,Clear,120,2012-10-31 08:55:00
3:35 AM,51.8,26.6,38,30.08,10.0,SE,5.8,-,N/A,,Clear,130,2012-10-31 09:35:00
3:55 AM,51.8,26.6,38,30.08,10.0,South,3.5,-,N/A,,Clear,170,2012-10-31 09:55:00
4:15 AM,51.8,26.6,38,30.08,10.0,ENE,6.9,-,N/A,,Clear,70,2012-10-31 10:15:00
4:35 AM,51.8,28.4,41,30.08,10.0,ESE,11.5,-,N/A,,Clear,120,2012-10-31 10:35:00
4:55 AM,53.6,28.4,38,30.08,10.0,SSE,9.2,-,N/A,,Clear,160,2012-10-31 10:55:00
5:15 AM,53.6,26.6,35,30.08,10.0,NE,8.1,-,N/A,,Clear,50,2012-10-31 11:15:00
5:55 AM,48.2,28.4,46,30.10,10.0,SE,9.2,-,N/A,,Clear,140,2012-10-31 11:55:00
6:15 AM,50.0,28.4,43,30.10,10.0,South,11.5,-,N/A,,Clear,170,2012-10-31 12:15:00
6:35 AM,48.2,28.4,46,30.10,10.0,South,13.8,-,N/A,,Clear,180,2012-10-31 12:35:00
6:55 AM,50.0,28.4,43,30.09,10.0,South,16.1,-,N/A,,Clear,180,2012-10-31 12:55:00
8:15 AM,48.2,28.4,46,30.10,10.0,SSE,15.0,-,N/A,,Clear,160,2012-10-31 14:15:00
8:35 AM,48.2,28.4,46,30.11,10.0,South,12.7,-,N/A,,Clear,190,2012-10-31 14:35:00
8:55 AM,50.0,30.2,47,30.11,10.0,SSW,20.7,-,N/A,,Clear,200,2012-10-31 14:55:00
9:15 AM,51.8,30.2,44,30.10,10.0,SSW,24.2,-,N/A,,Clear,200,2012-10-31 15:15:00
9:35 AM,55.4,30.2,38,30.09,10.0,SW,21.9,31.1,N/A,,Clear,220,2012-10-31 15:35:00
9:55 AM,57.2,30.2,36,30.09,10.0,SW,21.9,25.3,N/A,,Clear,220,2012-10-31 15:55:00
10:15 AM,57.2,30.2,36,30.09,10.0,SSW,19.6,-,N/A,,Clear,200,2012-10-31 16:15:00
10:35 AM,-9999,-9999,N/A,30.09,10.0,SW,18.4,23.0,N/A,,Clear,220,2012-10-31 16:35:00
10:55 AM,62.6,28.4,27,30.10,10.0,SSW,13.8,23.0,N/A,,Clear,210,2012-10-31 16:55:00
11:15 AM,64.4,28.4,26,30.10,10.0,WSW,9.2,-,N/A,,Clear,240,2012-10-31 17:15:00
11:35 AM,62.6,28.4,27,30.10,10.0,NW,5.8,-,N/A,,Clear,320,2012-10-31 17:35:00
11:55 AM,64.4,26.6,24,30.10,10.0,West,5.8,-,N/A,,Clear,270,2012-10-31 17:55:00
12:15 PM,60.8,30.2,31,30.09,10.0,NNE,5.8,-,N/A,,Clear,20,2012-10-31 18:15:00
12:35 PM,62.6,28.4,27,30.08,10.0,North,3.5,-,N/A,,Clear,350,2012-10-31 18:35:00
12:55 PM,59.0,30.2,34,30.08,10.0,NNE,10.4,-,N/A,,Clear,30,2012-10-31 18:55:00
1:15 PM,60.8,32.0,34,30.07,10.0,NNE,9.2,-,N/A,,Clear,20,2012-10-31 19:15:00
1:35 PM,62.6,32.0,32,30.07,10.0,NNE,10.4,-,N/A,,Clear,30,2012-10-31 19:35:00
1:55 PM,64.4,30.2,28,30.06,10.0,NE,9.2,-,N/A,,Clear,40,2012-10-31 19:55:00
2:35 PM,64.4,30.2,28,30.04,10.0,NE,12.7,-,N/A,,Clear,40,2012-10-31 20:35:00
2:55 PM,66.2,30.2,26,30.04,10.0,NNE,10.4,16.1,N/A,,Clear,30,2012-10-31 20:55:00
3:15 PM,64.4,30.2,28,30.04,10.0,NNE,8.1,-,N/A,,Clear,30,2012-10-31 21:15:00
3:35 PM,64.4,30.2,28,30.04,10.0,NE,5.8,-,N/A,,Clear,40,2012-10-31 21:35:00
3:55 PM,64.4,28.4,26,30.04,10.0,SSE,4.6,-,N/A,,Clear,150,2012-10-31 21:55:00
4:15 PM,66.2,26.6,23,30.03,10.0,ESE,8.1,-,N/A,,Clear,120,2012-10-31 22:15:00
4:35 PM,64.4,26.6,24,30.04,10.0,SSE,6.9,-,N/A,,Clear,150,2012-10-31 22:35:00
4:55 PM,64.4,26.6,24,30.04,10.0,SE,8.1,-,N/A,,Clear,140,2012-10-31 22:55:00
5:15 PM,62.6,26.6,26,30.04,10.0,SSE,8.1,-,N/A,,Clear,160,2012-10-31 23:15:00
5:55 PM,59.0,26.6,29,30.04,10.0,SSE,5.8,-,N/A,,Clear,150,2012-10-31 23:55:00
6:15 PM,57.2,26.6,31,30.04,10.0,SE,6.9,-,N/A,,Clear,140,2012-11-01 00:15:00
6:35 PM,55.4,24.8,31,30.04,10.0,SE,5.8,-,N/A,,Clear,140,2012-11-01 00:35:00
6:55 PM,53.6,26.6,35,30.04,10.0,SSE,6.9,-,N/A,,Clear,160,2012-11-01 00:55:00
7:15 PM,53.6,26.6,35,30.04,10.0,South,6.9,-,N/A,,Clear,170,2012-11-01 01:15:00
7:35 PM,53.6,26.6,35,30.04,10.0,SSW,4.6,-,N/A,,Clear,200,2012-11-01 01:35:00
7:55 PM,51.8,26.6,38,30.04,10.0,SW,5.8,-,N/A,,Clear,230,2012-11-01 01:55:00
8:15 PM,48.2,26.6,43,30.04,10.0,Calm,Calm,-,N/A,,Clear,0,2012-11-01 02:15:00
8:35 PM,51.8,26.6,38,30.03,10.0,Calm,Calm,-,N/A,,Clear,0,2012-11-01 02:35:00
8:55 PM,53.6,26.6,35,30.03,10.0,Calm,Calm,-,N/A,,Clear,0,2012-11-01 02:55:00
9:15 PM,53.6,24.8,33,30.03,10.0,Calm,Calm,-,N/A,,Clear,0,2012-11-01 03:15:00
9:35 PM,48.2,26.6,43,30.02,10.0,South,3.5,-,N/A,,Clear,170,2012-11-01 03:35:00
10:15 PM,48.2,26.6,43,30.01,10.0,South,10.4,-,N/A,,Clear,170,2012-11-01 04:15:00
10:35 PM,48.2,24.8,40,30.01,10.0,SSE,10.4,-,N/A,,Clear,160,2012-11-01 04:35:00
10:55 PM,51.8,26.6,38,30.01,10.0,SSW,6.9,-,N/A,,Clear,210,2012-11-01 04:55:00
11:15 PM,51.8,26.6,38,30.00,10.0,South,8.1,-,N/A,,Clear,190,2012-11-01 05:15:00
11:35 PM,51.8,26.6,38,30.00,10.0,SSW,9.2,-,N/A,,Clear,210,2012-11-01 05:35:00
11:55 PM,53.6,26.6,35,29.99,10.0,South,8.1,-,N/A,,Clear,170,2012-11-01 05:55:00